This is the latest recevied weather packets stored in our database for station/object N2PPN. If no packets are shown the sender has not sent any weather packets the latest 1 day(s).
| Time | Temp. | Humidity | Pressure | Rain* | Wind** | Luminosity | Snow |
|---|---|---|---|---|---|---|---|
| 1778025469 | 17.22° C | 75% | 1013.2 hPa | 0 mm | 4.47 m/s, 255° | 2 W/m² | - |
| 1778025167 | 17.22° C | 75% | 1013.3 hPa | 0 mm | 5.81 m/s, 205° | 3 W/m² | - |
| 1778024864 | 17.22° C | 75% | 1013.1 hPa | 0 mm | 3.13 m/s, 240° | 5 W/m² | - |
| 1778024561 | 17.22° C | 74% | 1013.1 hPa | 0 mm | 5.81 m/s, 235° | 7 W/m² | - |
| 1778024258 | 16.67° C | 75% | 1013 hPa | 0 mm | 4.47 m/s, 125° | 10 W/m² | - |
| 1778023956 | 16.67° C | 75% | 1012.7 hPa | 0 mm | 4.92 m/s, 209° | 15 W/m² | - |
| 1778023653 | 17.22° C | 74% | 1012.7 hPa | 0 mm | 4.92 m/s, 223° | 18 W/m² | - |
| 1778023350 | 17.22° C | 74% | 1012.5 hPa | 0 mm | 8.49 m/s, 230° | 20 W/m² | - |
| 1778023047 | 16.67° C | 74% | 1012.5 hPa | 0 mm | 8.49 m/s, 195° | 22 W/m² | - |
| 1778022746 | 16.67° C | 75% | 1012.7 hPa | 0 mm | 4.47 m/s, 223° | 25 W/m² | - |
| 1778022443 | 17.22° C | 75% | 1012.5 hPa | 0 mm | 5.81 m/s, 159° | 28 W/m² | - |
| 1778022140 | 17.22° C | 74% | 1012.3 hPa | 0 mm | 6.26 m/s, 206° | 34 W/m² | - |
| 1778021836 | 16.67° C | 75% | 1012.4 hPa | 0 mm | 4.02 m/s, 240° | 41 W/m² | - |
| 1778021534 | 16.67° C | 75% | 1012.1 hPa | 0 mm | 5.36 m/s, 193° | 44 W/m² | - |
| 1778021229 | 17.22° C | 74% | 1012.3 hPa | 0 mm | 2.24 m/s, 173° | 69 W/m² | - |
| 1778020927 | 17.22° C | 74% | 1012.4 hPa | 0 mm | 4.92 m/s, 271° | 82 W/m² | - |
| 1778020624 | 16.67° C | 74% | 1012.2 hPa | 0 mm | 7.15 m/s, 224° | 91 W/m² | - |
| 1778020320 | 17.22° C | 75% | 1012.4 hPa | 0 mm | 4.47 m/s, 238° | 86 W/m² | - |
| 1778020016 | 17.22° C | 73% | 1012.3 hPa | 0 mm | 6.26 m/s, 215° | 98 W/m² | - |
| 1778019712 | 17.22° C | 73% | 1012.3 hPa | 0 mm | 3.58 m/s, 171° | 101 W/m² | - |
| 1778019410 | 17.78° C | 72% | 1012.2 hPa | 0 mm | 7.6 m/s, 177° | 137 W/m² | - |
| 1778019106 | 17.78° C | 71% | 1012.1 hPa | 0 mm | 5.81 m/s, 219° | 146 W/m² | - |
| 1778018803 | 17.78° C | 71% | 1012.3 hPa | 0 mm | 8.49 m/s, 227° | 157 W/m² | - |
| 1778018501 | 17.78° C | 70% | 1012.1 hPa | 0 mm | 4.92 m/s, 260° | 169 W/m² | - |
| 1778018198 | 17.78° C | 70% | 1011.9 hPa | 0 mm | 5.81 m/s, 228° | 189 W/m² | - |
* Rain latest hour (hover to see other rain measurements)
** Current wind speed in m/s (hover to see current wind gust speed)